| time (UTC) | temp C | wind direction | speed KPH | gust KPH | rain 1hr cm | rain 24hr cm | rain mn cm | humidity % | barometer mb |
| 20260505124904 | 21 | 324 | 0.0 | 0.0 | 0.00 | 4.04 | 4.01 | 94 | 1012.9 |
| 20260505124404 | 21 | 324 | 0.0 | 0.0 | 0.00 | 4.04 | 4.01 | 94 | 1012.9 |
| 20260505123904 | 21 | 325 | 0.0 | 0.0 | 0.03 | 4.04 | 4.01 | 94 | 1012.8 |
| 20260505123404 | 21 | 327 | 0.0 | 1.6 | 0.08 | 4.04 | 4.01 | 94 | 1012.7 |
| 20260505122904 | 21 | 333 | 0.0 | 1.6 | 0.13 | 4.04 | 4.01 | 94 | 1012.7 |
| 20260505122404 | 21 | 279 | 0.0 | 1.6 | 0.13 | 4.04 | 4.01 | 94 | 1012.7 |
| 20260505121904 | 21 | 278 | 0.0 | 0.0 | 0.13 | 4.04 | 4.01 | 94 | 1012.7 |
| 20260505121404 | 21 | 275 | 0.0 | 1.6 | 0.15 | 4.04 | 4.01 | 94 | 1012.6 |
| 20260505120904 | 21 | 275 | 0.0 | 0.0 | 0.15 | 4.04 | 4.01 | 94 | 1012.6 |
| 20260505120404 | 21 | 275 | 0.0 | 1.6 | 0.15 | 4.06 | 4.01 | 94 | 1012.6 |
| 20260505115904 | 21 | 311 | 0.0 | 0.0 | 0.15 | 4.06 | 4.01 | 94 | 1012.5 |
| 20260505115403 | 21 | 331 | 0.0 | 1.6 | 0.15 | 4.06 | 4.01 | 94 | 1012.5 |
| 20260505114903 | 21 | 350 | 0.0 | 0.0 | 0.15 | 4.06 | 4.01 | 94 | 1012.5 |
| 20260505114404 | 21 | 7 | 0.0 | 0.0 | 0.15 | 4.06 | 4.01 | 94 | 1012.5 |
| 20260505113904 | 21 | 34 | 1.6 | 3.2 | 0.13 | 4.04 | 3.99 | 94 | 1012.5 |
| 20260505113404 | 21 | 71 | 1.6 | 4.8 | 0.13 | 3.99 | 3.94 | 94 | 1012.5 |
| 20260505112403 | 21 | 293 | 0.0 | 1.6 | 0.10 | 3.94 | 3.89 | 94 | 1012.4 |
| 20260505111405 | 21 | 51 | 0.0 | 0.0 | 0.08 | 3.91 | 3.86 | 94 | 1012.2 |
| 20260505110904 | 21 | 59 | 3.2 | 9.7 | 0.08 | 3.91 | 3.86 | 93 | 1012.1 |
| 20260505110404 | 21 | 55 | 4.8 | 9.7 | 0.08 | 3.94 | 3.86 | 93 | 1012.1 |
| 20260505101404 | 21 | 38 | 3.2 | 8.0 | 0.00 | 3.89 | 3.78 | 93 | 1011.9 |
| 20260505100905 | 21 | 12 | 3.2 | 8.0 | 0.00 | 3.89 | 3.78 | 92 | 1011.9 |
| 20260505100405 | 21 | 62 | 4.8 | 11.3 | 0.00 | 3.89 | 3.78 | 92 | 1011.8 |
| 20260505095904 | 21 | 57 | 3.2 | 4.8 | 0.00 | 3.89 | 3.78 | 92 | 1011.8 |
| 20260505095404 | 21 | 47 | 3.2 | 9.7 | 0.00 | 3.89 | 3.78 | 92 | 1011.7 |
| 20260505094404 | 21 | 64 | 1.6 | 8.0 | 0.00 | 3.91 | 3.78 | 91 | 1011.7 |
| 20260505093904 | 21 | 47 | 3.2 | 4.8 | 0.00 | 3.91 | 3.78 | 91 | 1011.6 |
| 20260505092904 | 22 | 66 | 3.2 | 4.8 | 0.00 | 3.91 | 3.78 | 90 | 1011.6 |
| 20260505092404 | 22 | 57 | 1.6 | 4.8 | 0.00 | 3.91 | 3.78 | 90 | 1011.6 |
| 20260505091904 | 22 | 28 | 1.6 | 4.8 | 0.00 | 3.91 | 3.78 | 91 | 1011.5 |
| 20260505091403 | 22 | 18 | 0.0 | 0.0 | 0.00 | 3.91 | 3.78 | 91 | 1011.6 |
| 20260505090904 | 21 | 35 | 1.6 | 3.2 | 0.00 | 3.91 | 3.78 | 91 | 1011.6 |
| 20260505090404 | 21 | 56 | 3.2 | 9.7 | 0.00 | 3.91 | 3.78 | 91 | 1011.6 |
| 20260505085903 | 21 | 43 | 1.6 | 4.8 | 0.00 | 3.91 | 3.78 | 91 | 1011.5 |
| 20260505085404 | 21 | 47 | 3.2 | 8.0 | 0.00 | 3.91 | 3.78 | 91 | 1011.5 |
| 20260505084404 | 21 | 51 | 6.4 | 11.3 | 0.00 | 3.91 | 3.78 | 90 | 1011.6 |
| 20260505083904 | 21 | 53 | 6.4 | 16.1 | 0.00 | 3.91 | 3.78 | 90 | 1011.6 |
| 20260505083404 | 22 | 41 | 3.2 | 11.3 | 0.00 | 3.91 | 3.78 | 90 | 1011.6 |
| 20260505082904 | 22 | 61 | 4.8 | 11.3 | 0.00 | 3.91 | 3.78 | 90 | 1011.7 |
| 20260505082404 | 22 | 49 | 1.6 | 11.3 | 0.00 | 3.91 | 3.78 | 90 | 1011.7 |
| 20260505081904 | 22 | 58 | 4.8 | 11.3 | 0.00 | 3.91 | 3.78 | 90 | 1011.7 |
| 20260505081404 | 22 | 48 | 8.0 | 12.9 | 0.00 | 3.91 | 3.78 | 90 | 1011.6 |
| 20260505080904 | 22 | 43 | 1.6 | 4.8 | 0.00 | 3.91 | 3.78 | 91 | 1011.5 |
| 20260505080404 | 22 | 343 | 0.0 | 1.6 | 0.00 | 3.91 | 3.78 | 91 | 1011.5 |
| 20260505075904 | 22 | 48 | 1.6 | 4.8 | 0.00 | 3.91 | 3.78 | 92 | 1011.5 |
| 20260505075405 | 21 | 27 | 4.8 | 9.7 | 0.00 | 3.91 | 3.78 | 91 | 1011.6 |
| 20260505074904 | 21 | 44 | 3.2 | 14.5 | 0.00 | 3.91 | 3.78 | 91 | 1011.7 |
| 20260505074404 | 21 | 53 | 8.0 | 14.5 | 0.00 | 3.91 | 3.78 | 91 | 1011.8 |
| 20260505072903 | 22 | 32 | 1.6 | 9.7 | 0.00 | 3.91 | 3.78 | 92 | 1012.0 |
| 20260505072404 | 22 | 28 | 4.8 | 11.3 | 0.00 | 3.91 | 3.78 | 91 | 1012.0 |
| 20260505071904 | 22 | 61 | 4.8 | 14.5 | 0.00 | 3.91 | 3.78 | 92 | 1012.0 |
| 20260505071404 | 22 | 42 | 8.0 | 11.3 | 0.00 | 3.91 | 3.78 | 92 | 1011.9 |
| 20260505070904 | 22 | 25 | 1.6 | 4.8 | 0.03 | 3.91 | 3.78 | 93 | 1011.8 |
| 20260505070404 | 21 | 306 | 0.0 | 4.8 | 0.03 | 3.91 | 3.78 | 94 | 1011.8 |
| 20260505065904 | 21 | 60 | 4.8 | 9.7 | 0.03 | 3.91 | 3.78 | 93 | 1011.9 |
| 20260505065404 | 21 | 62 | 4.8 | 8.0 | 0.03 | 3.91 | 3.78 | 93 | 1012.1 |
| 20260505064904 | 21 | 20 | 3.2 | 8.0 | 0.03 | 3.91 | 3.78 | 94 | 1012.4 |
| 20260505064404 | 21 | 53 | 4.8 | 8.0 | 0.05 | 3.91 | 3.78 | 94 | 1012.4 |
| 20260505063404 | 21 | 68 | 4.8 | 8.0 | 0.10 | 3.91 | 3.78 | 94 | 1012.6 |
| 20260505062903 | 21 | 46 | 1.6 | 4.8 | 0.13 | 3.91 | 3.78 | 94 | 1012.6 |
| 20260505061904 | 21 | 6 | 0.0 | 9.7 | 0.28 | 3.91 | 3.78 | 95 | 1012.7 |
| 20260505061404 | 21 | 53 | 4.8 | 11.3 | 0.33 | 3.91 | 3.78 | 94 | 1012.7 |
| 20260505060903 | 21 | 65 | 3.2 | 8.0 | 0.33 | 3.89 | 3.76 | 94 | 1012.8 |
| 20260505060404 | 21 | 331 | 0.0 | 3.2 | 0.33 | 3.89 | 3.76 | 95 | 1012.8 |
| 20260505055904 | 21 | 46 | 1.6 | 3.2 | 0.36 | 3.89 | 3.76 | 95 | 1012.8 |
| 20260505055404 | 21 | 319 | 0.0 | 1.6 | 0.38 | 3.89 | 3.76 | 95 | 1012.8 |
| 20260505054904 | 21 | 320 | 0.0 | 1.6 | 0.43 | 3.89 | 3.76 | 95 | 1012.9 |
| 20260505054404 | 21 | 17 | 1.6 | 3.2 | 0.41 | 3.86 | 3.73 | 95 | 1012.9 |
| 20260505053904 | 21 | 342 | 0.0 | 3.2 | 0.38 | 3.84 | 3.71 | 95 | 1013.0 |
| 20260505053404 | 21 | 353 | 0.0 | 0.0 | 0.38 | 3.81 | 3.68 | 95 | 1013.2 |
| 20260505052904 | 21 | 42 | 1.6 | 8.0 | 0.36 | 3.78 | 3.66 | 95 | 1013.3 |
| 20260505052404 | 21 | 53 | 4.8 | 9.7 | 0.28 | 3.71 | 3.58 | 94 | 1013.5 |
| 20260505051404 | 21 | 355 | 1.6 | 4.8 | 0.18 | 3.58 | 3.45 | 94 | 1013.7 |
| 20260505050904 | 21 | 3 | 1.6 | 4.8 | 0.15 | 3.56 | 3.43 | 94 | 1013.6 |
| 20260505050404 | 21 | 340 | 0.0 | 1.6 | 0.15 | 3.56 | 3.43 | 94 | 1013.6 |
| 20260505040904 | 21 | 318 | 0.0 | 3.2 | 0.03 | 3.40 | 3.28 | 95 | 1014.2 |
| 20260505040404 | 21 | 27 | 1.6 | 3.2 | 0.03 | 3.40 | 3.28 | 95 | 1014.2 |
| 20260505035904 | 21 | 34 | 1.6 | 4.8 | 0.05 | 3.40 | 3.28 | 95 | 1014.2 |
| 20260505035404 | 21 | 349 | 1.6 | 14.5 | 0.10 | 3.40 | 3.28 | 96 | 1014.4 |
| 20260505034905 | 21 | 341 | 1.6 | 4.8 | 0.15 | 3.40 | 3.28 | 96 | 1014.4 |
| 20260505034404 | 21 | 332 | 0.0 | 1.6 | 0.30 | 3.40 | 3.28 | 96 | 1014.5 |
| 20260505033904 | 20 | 351 | 0.0 | 3.2 | 0.41 | 3.40 | 3.28 | 96 | 1014.6 |
| 20260505033405 | 20 | 332 | 0.0 | 1.6 | 0.51 | 3.40 | 3.28 | 96 | 1014.6 |
| 20260505031404 | 20 | 346 | 0.0 | 3.2 | 0.64 | 3.40 | 3.28 | 96 | 1014.7 |
| 20260505030904 | 20 | 5 | 1.6 | 4.8 | 0.64 | 3.38 | 3.25 | 96 | 1014.7 |
| 20260505025904 | 20 | 16 | 3.2 | 8.0 | 0.69 | 3.35 | 3.23 | 96 | 1014.8 |
| 20260505025404 | 20 | 327 | 0.0 | 4.8 | 0.64 | 3.30 | 3.17 | 96 | 1014.9 |
| 20260505024904 | 20 | 47 | 6.4 | 11.3 | 0.61 | 3.25 | 3.12 | 95 | 1015.0 |
| 20260505024404 | 20 | 59 | 4.8 | 9.7 | 0.46 | 3.10 | 2.97 | 95 | 1015.2 |
| 20260505023904 | 20 | 61 | 4.8 | 8.0 | 0.41 | 3.00 | 2.87 | 95 | 1015.2 |
| 20260505023404 | 20 | 346 | 1.6 | 4.8 | 0.33 | 2.90 | 2.77 | 96 | 1015.2 |
| 20260505022904 | 20 | 315 | 0.0 | 3.2 | 0.28 | 2.82 | 2.69 | 96 | 1015.1 |
| 20260505022404 | 20 | 11 | 1.6 | 4.8 | 0.28 | 2.79 | 2.67 | 95 | 1015.1 |
| 20260505021404 | 20 | 304 | 0.0 | 3.2 | 0.38 | 2.77 | 2.64 | 96 | 1014.9 |
| 20260505020904 | 20 | 1 | 3.2 | 9.7 | 0.51 | 2.74 | 2.62 | 95 | 1014.9 |
| 20260505015904 | 20 | 353 | 1.6 | 3.2 | 0.66 | 2.67 | 2.54 | 96 | 1014.9 |
| 20260505015404 | 20 | 318 | 0.0 | 0.0 | 0.79 | 2.67 | 2.54 | 96 | 1015.0 |
| 20260505013904 | 20 | 23 | 0.0 | 3.2 | 0.89 | 2.59 | 2.46 | 95 | 1015.1 |
| 20260505012904 | 20 | 348 | 0.0 | 1.6 | 0.89 | 2.54 | 2.41 | 95 | 1014.9 |
| 20260505012404 | 20 | 358 | 0.0 | 1.6 | 0.89 | 2.51 | 2.39 | 95 | 1015.0 |
| 20260505011904 | 20 | 28 | 0.0 | 4.8 | 0.89 | 2.49 | 2.36 | 95 | 1015.0 |
| 20260505011404 | 20 | 337 | 0.0 | 3.2 | 0.81 | 2.39 | 2.26 | 95 | 1015.0 |
| 20260505010904 | 20 | 14 | 4.8 | 11.3 | 0.71 | 2.24 | 2.11 | 95 | 1015.0 |
| 20260505010405 | 20 | 56 | 6.4 | 11.3 | 0.61 | 2.11 | 1.98 | 94 | 1014.9 |
| 20260505005904 | 20 | 60 | 6.4 | 12.9 | 0.51 | 2.01 | 1.88 | 94 | 1014.9 |
| 20260505005404 | 20 | 60 | 4.8 | 8.0 | 0.41 | 1.88 | 1.75 | 94 | 1014.9 |
| 20260505004904 | 20 | 57 | 1.6 | 4.8 | 0.36 | 1.83 | 1.70 | 94 | 1014.9 |
| 20260505004404 | 20 | 49 | 1.6 | 4.8 | 0.36 | 1.75 | 1.63 | 94 | 1014.8 |
| 20260505003904 | 20 | 339 | 1.6 | 3.2 | 0.30 | 1.70 | 1.57 | 94 | 1014.8 |
| 20260505003404 | 20 | 333 | 0.0 | 1.6 | 0.28 | 1.68 | 1.55 | 94 | 1014.6 |
| 20260505002903 | 20 | 326 | 0.0 | 4.8 | 0.25 | 1.65 | 1.52 | 94 | 1014.5 |
| 20260505001404 | 20 | 313 | 0.0 | 1.6 | 0.18 | 1.57 | 1.45 | 94 | 1014.5 |
| 20260505000904 | 20 | 349 | 1.6 | 4.8 | 0.15 | 1.52 | 1.40 | 94 | 1014.5 |
| 20260505000405 | 20 | 25 | 0.0 | 3.2 | 0.13 | 1.50 | 1.37 | 94 | 1014.4 |
| 20260504235404 | 20 | 352 | 0.0 | 3.2 | 0.13 | 1.47 | 1.35 | 94 | 1014.3 |
| 20260504234904 | 20 | 356 | 1.6 | 4.8 | 0.15 | 1.47 | 1.35 | 94 | 1014.1 |
| 20260504234404 | 20 | 37 | 1.6 | 8.0 | 0.10 | 1.40 | 1.27 | 94 | 1014.0 |
| 20260504233903 | 20 | 60 | 3.2 | 9.7 | 0.13 | 1.40 | 1.27 | 94 | 1013.9 |
| 20260504233404 | 21 | 315 | 0.0 | 1.6 | 0.13 | 1.40 | 1.27 | 94 | 1013.8 |
| 20260504232904 | 21 | 16 | 0.0 | 3.2 | 0.15 | 1.40 | 1.27 | 95 | 1013.8 |
| 20260504232404 | 21 | 22 | 1.6 | 3.2 | 0.18 | 1.40 | 1.27 | 94 | 1013.8 |
| 20260504231404 | 20 | 18 | 0.0 | 4.8 | 0.25 | 1.40 | 1.27 | 94 | 1013.8 |
| 20260504230904 | 21 | 60 | 1.6 | 9.7 | 0.28 | 1.37 | 1.24 | 95 | 1013.9 |
| 20260504230403 | 20 | 39 | 1.6 | 8.0 | 0.36 | 1.37 | 1.24 | 94 | 1013.8 |
| 20260504225904 | 20 | 50 | 3.2 | 8.0 | 0.46 | 1.37 | 1.24 | 94 | 1013.8 |
| 20260504225405 | 21 | 0 | 0.0 | 1.6 | 0.56 | 1.35 | 1.22 | 94 | 1013.9 |
| 20260504224404 | 21 | 333 | 1.6 | 4.8 | 0.86 | 1.30 | 1.17 | 94 | 1013.8 |
| 20260504223904 | 21 | 44 | 0.0 | 4.8 | 0.91 | 1.27 | 1.14 | 94 | 1013.8 |
| 20260504223404 | 20 | 343 | 1.6 | 4.8 | 0.91 | 1.27 | 1.14 | 94 | 1013.6 |
| 20260504222903 | 20 | 37 | 1.6 | 4.8 | 0.89 | 1.24 | 1.12 | 94 | 1013.7 |
| 20260504221904 | 21 | 320 | 0.0 | 1.6 | 0.84 | 1.19 | 1.07 | 93 | 1013.6 |
| 20260504221404 | 21 | 335 | 1.6 | 3.2 | 0.79 | 1.14 | 1.02 | 93 | 1013.6 |
| 20260504220904 | 21 | 335 | 0.0 | 1.6 | 0.74 | 1.09 | 0.97 | 93 | 1013.5 |
| 20260504220404 | 21 | 33 | 1.6 | 4.8 | 0.66 | 1.02 | 0.89 | 92 | 1013.5 |
| 20260504215904 | 21 | 343 | 0.0 | 1.6 | 0.56 | 0.91 | 0.79 | 92 | 1013.6 |
| 20260504215404 | 21 | 35 | 0.0 | 4.8 | 0.43 | 0.79 | 0.66 | 92 | 1013.7 |
| 20260504214904 | 21 | 358 | 0.0 | 1.6 | 0.28 | 0.64 | 0.51 | 91 | 1013.7 |
| 20260504214404 | 21 | 313 | 0.0 | 1.6 | 0.08 | 0.43 | 0.30 | 90 | 1013.7 |
| 20260504213904 | 21 | 317 | 0.0 | 1.6 | 0.00 | 0.36 | 0.23 | 90 | 1013.6 |
| 20260504213404 | 21 | 318 | 0.0 | 1.6 | 0.03 | 0.36 | 0.23 | 90 | 1013.4 |
| 20260504212905 | 21 | 328 | 0.0 | 1.6 | 0.03 | 0.36 | 0.23 | 90 | 1013.2 |
| 20260504212404 | 21 | 338 | 0.0 | 3.2 | 0.03 | 0.36 | 0.23 | 90 | 1013.1 |
| 20260504211904 | 21 | 337 | 0.0 | 4.8 | 0.03 | 0.36 | 0.23 | 89 | 1013.2 |
| 20260504205904 | 22 | 304 | 0.0 | 0.0 | 0.03 | 0.36 | 0.23 | 89 | 1013.2 |
| 20260504205404 | 22 | 305 | 0.0 | 1.6 | 0.03 | 0.36 | 0.23 | 89 | 1013.3 |
| 20260504204903 | 22 | 332 | 0.0 | 1.6 | 0.03 | 0.36 | 0.23 | 89 | 1013.2 |
| 20260504204404 | 22 | 313 | 0.0 | 0.0 | 0.03 | 0.36 | 0.23 | 89 | 1013.3 |
| 20260504203904 | 22 | 314 | 0.0 | 1.6 | 0.03 | 0.36 | 0.23 | 89 | 1013.2 |
| 20260504203404 | 22 | 314 | 0.0 | 1.6 | 0.03 | 0.36 | 0.23 | 89 | 1013.2 |
| 20260504202904 | 22 | 314 | 0.0 | 1.6 | 0.03 | 0.36 | 0.23 | 89 | 1013.1 |
| 20260504202404 | 22 | 311 | 0.0 | 1.6 | 0.00 | 0.33 | 0.20 | 89 | 1013.0 |
| 20260504201904 | 22 | 312 | 0.0 | 3.2 | 0.00 | 0.33 | 0.20 | 89 | 1012.9 |
| 20260504201404 | 22 | 34 | 1.6 | 4.8 | 0.00 | 0.33 | 0.20 | 89 | 1013.0 |
| 20260504195904 | 22 | 301 | 0.0 | 1.6 | 0.00 | 0.33 | 0.20 | 90 | 1013.0 |
| 20260504195404 | 22 | 358 | 0.0 | 1.6 | 0.03 | 0.33 | 0.20 | 90 | 1013.0 |
| 20260504194904 | 22 | 300 | 0.0 | 3.2 | 0.03 | 0.33 | 0.20 | 91 | 1013.1 |
| 20260504194404 | 22 | 255 | 1.6 | 4.8 | 0.03 | 0.33 | 0.20 | 91 | 1013.1 |
| 20260504193404 | 22 | 319 | 0.0 | 3.2 | 0.03 | 0.33 | 0.20 | 91 | 1012.9 |
| 20260504192404 | 22 | 310 | 0.0 | 3.2 | 0.03 | 0.33 | 0.20 | 91 | 1012.9 |
| 20260504191904 | 22 | 326 | 0.0 | 1.6 | 0.03 | 0.33 | 0.20 | 91 | 1012.9 |
| 20260504191404 | 22 | 348 | 0.0 | 1.6 | 0.03 | 0.33 | 0.20 | 91 | 1012.9 |
| 20260504190904 | 22 | 343 | 0.0 | 1.6 | 0.05 | 0.33 | 0.20 | 91 | 1012.9 |
| 20260504190404 | 22 | 311 | 0.0 | 1.6 | 0.05 | 0.33 | 0.20 | 91 | 1013.0 |
| 20260504185904 | 22 | 4 | 0.0 | 1.6 | 0.10 | 0.33 | 0.20 | 91 | 1013.0 |
| 20260504185404 | 22 | 60 | 1.6 | 8.0 | 0.10 | 0.30 | 0.18 | 91 | 1013.1 |
| 20260504184905 | 22 | 15 | 1.6 | 3.2 | 0.18 | 0.30 | 0.18 | 91 | 1013.2 |
| 20260504184405 | 22 | 2 | 0.0 | 8.0 | 0.18 | 0.30 | 0.18 | 91 | 1013.1 |
| 20260504183904 | 22 | 346 | 0.0 | 0.0 | 0.18 | 0.30 | 0.18 | 91 | 1013.2 |
| 20260504183404 | 22 | 39 | 1.6 | 4.8 | 0.18 | 0.30 | 0.18 | 92 | 1013.3 |
| 20260504182904 | 22 | 47 | 1.6 | 4.8 | 0.18 | 0.30 | 0.18 | 91 | 1013.2 |
| 20260504182404 | 22 | 355 | 0.0 | 4.8 | 0.18 | 0.30 | 0.18 | 91 | 1013.3 |
| 20260504181904 | 22 | 316 | 0.0 | 4.8 | 0.18 | 0.30 | 0.18 | 92 | 1013.3 |
| 20260504181404 | 22 | 6 | 3.2 | 8.0 | 0.18 | 0.30 | 0.18 | 91 | 1013.5 |
| 20260504180904 | 22 | 5 | 0.0 | 4.8 | 0.15 | 0.28 | 0.15 | 91 | 1013.8 |
| 20260504180404 | 22 | 23 | 0.0 | 4.8 | 0.15 | 0.28 | 0.15 | 90 | 1013.9 |
| 20260504175904 | 23 | 314 | 0.0 | 0.0 | 0.10 | 0.23 | 0.10 | 90 | 1013.9 |
| 20260504175404 | 23 | 10 | 0.0 | 0.0 | 0.08 | 0.20 | 0.08 | 89 | 1014.0 |
| 20260504174404 | 23 | 3 | 1.6 | 4.8 | 0.00 | 0.13 | 0.00 | 88 | 1014.0 |
| 20260504173905 | 23 | 349 | 1.6 | 4.8 | 0.00 | 0.13 | 0.00 | 88 | 1014.1 |
| 20260504173404 | 23 | 3 | 1.6 | 3.2 | 0.00 | 0.13 | 0.00 | 87 | 1014.0 |
| 20260504172904 | 23 | 43 | 3.2 | 8.0 | 0.00 | 0.13 | 0.00 | 87 | 1014.1 |
| 20260504172404 | 23 | 5 | 1.6 | 9.7 | 0.00 | 0.13 | 0.00 | 86 | 1014.1 |
| 20260504171903 | 23 | 325 | 0.0 | 1.6 | 0.00 | 0.13 | 0.00 | 86 | 1014.2 |
| 20260504171403 | 23 | 62 | 1.6 | 4.8 | 0.00 | 0.13 | 0.00 | 86 | 1014.2 |
| 20260504170904 | 23 | 48 | 1.6 | 3.2 | 0.00 | 0.13 | 0.00 | 86 | 1014.3 |
| 20260504160404 | 22 | 329 | 0.0 | 3.2 | 0.00 | 0.13 | 0.00 | 88 | 1014.4 |
| 20260504150904 | 22 | 328 | 0.0 | 4.8 | 0.03 | 0.23 | 0.13 | 92 | 1015.2 |
| 20260504150404 | 22 | 347 | 0.0 | 1.6 | 0.03 | 0.25 | 0.13 | 92 | 1015.2 |
| 20260504140904 | 23 | 28 | 0.0 | 4.8 | 0.00 | 0.43 | 0.10 | 92 | 1014.8 |
| 20260504140404 | 23 | 10 | 1.6 | 3.2 | 0.00 | 0.48 | 0.10 | 92 | 1014.7 |